Regional Weather Roundup
Issued by NWS Newport/Morehead, NC

Current Version | Previous Version | Text Only | Print | Product List | Glossary On
Versions: 1 2 3 4 5 6 7 8 9 10 11 12 13 14 15 16 17 18 19 20 21 22 23 24 25 26 27 28 29 30 31 32 33 34 35 36 37 38 39 40 41 42 43 44 45 46 47 48 49 50
000
ASUS42 KMHX 011410
RWRMHX
WEATHER ROUNDUP FOR EASTERN NORTH CAROLINA
NATIONAL WEATHER SERVICE NEWPORT/MOREHEAD CITY NC
1000 AM EDT MON SEP 01 2014

NOTE: "FAIR" INDICATES FEW OR NO CLOUDS BELOW 12,000 FEET
WITH NO SIGNIFICANT WEATHER AND/OR OBSTRUCTIONS TO VISIBILITY

NCZ015>017-031-032-045>047-102-103-011500-
NORTH COAST

CITY           SKY/WX    TMP DP  RH WIND       PRES   REMARKS
EDENTON        SUNNY     81  76  86 SW7       30.10F
ELIZABETH CITY MOSUNNY   82  76  81 W9        30.10S
KITTY HAWK     MOSUNNY   83  75  78 SW6       30.10S
MANTEO         MOSUNNY   83  75  78 SW9       30.11F

$$

NCZ045>047-081-094-103-104-011500-
CENTRAL COAST

CITY           SKY/WX    TMP DP  RH WIND       PRES   REMARKS
FRISCO         MOSUNNY   83  77  82 SW9       30.13R
SWANQUARTER      N/A     84 N/A N/A SW2G9     30.09S

$$

NCZ095-097-098-100-101-011500-
SOUTHERN COAST

CITY           SKY/WX    TMP DP  RH WIND       PRES   REMARKS
BEAUFORT       MOSUNNY   85  76  74 W9        30.12S
CEDAR ISLAND     N/A     84 N/A N/A W8        30.18R
JACKSONVILLE   SUNNY     82  74  76 SW7       30.12F
NEWPORT        NOT AVBL
PINEY ISLAND   SUNNY     80  76  87 SW7       30.12S
WILMINGTON     MOSUNNY   83  76  79 W8        30.12F


$$

NCZ011>013-027>030-043-044-078>080-089-090>093-098-011500-
COASTAL PLAIN

CITY           SKY/WX    TMP DP  RH WIND       PRES   REMARKS
AHOSKIE        PTSUNNY   81  74  80 S5        30.09S
CLINTON        MOSUNNY   82  76  82 SW3       30.12F
ELIZABETHTOWN  MOSUNNY   83  74  75 CALM      30.12F
GOLDSBORO      MOSUNNY   82  79  91 SW6       30.10S
GREENVILLE     MOSUNNY   82  77  83 SW7       30.12S
HAVELOCK       MOSUNNY   85  74  69 W8        30.13F
KENANSVILLE    SUNNY     82  73  75 W3        30.12F
KINSTON        SUNNY     84  75  74 SW5       30.12F
NEW BERN       SUNNY     86  76  71 SW7       30.13F
RICHLANDS      SUNNY     84  73  70 W8        30.12F
ROANOKE RAPIDS NOT AVBL
ROCKY MOUNT    PTSUNNY   81  74  79 SW6       30.11S
WASHINGTON     SUNNY     82  75  80 S8        30.11F
WHITEVILLE     SUNNY     82  75  79 SW5       30.11F

$$

AMZ130-135-150-152-154-156-158-170-250-252-270-ANZ085-086-088-633-658-670-011500-
MARINE OBSERVATIONS

STATION/POSITION TIME  TEMP    WIND        PRES    WAVE   SWELL
                       AIR SEA DIR/SP/G            HT/PER HT/PER
                 (UTC) (F)     (DEG/KT/KT) (MB)    (FT/S) (FT/S)
CHESAPEAKE LIGHT 1300   79     220/ 12/ 13 1019.1
BUOY 44014       1400   78 77  220/ 10/ 12 1018.7    3/ 8   2/ 8
DUCK             1400   80 75  230/ 13/ 16 1018.5
2E DUCK          1300                        N/A     2/ 9
OREGON INLET     1400   81 82  240/ 11/ 12 1019.6
BUOY 44095       1400      78                N/A     3/11   2/11
20E OREGON INLET NOT AVBL
HATTERAS CG      1400   84 83  240/  8/ 12 1020.7
DIAMOND BUOY     1400   81     240/ 12/ 16 1020.0    3/ 9   2/ 9
CAPE LOOKOUT     1300   82     210/  7/  9 1020.0
BEAUFORT LAB     1400   84 83  240/  4/  6 1019.7
30 SE NEW RIVER  1400   81 83  250/  6/  8 1020.4    3/ 4   2/ 4
5 SE WRIGHTSVILL 1300   78 82  280/  8/  8   N/A
BUOY 41002       1317   81 83  190/  4/  6 1021.9    3/ 9   3/ 9
BUOY 41004       1400   83 83  280/  2/  2 1019.6    2/ 9   2/ 9

$$


USA.gov is the U.S. government's official web portal to all federal, state and local government web resources and services.